This is the latest recevied weather packets stored in our database for station/object N0NPO. If no packets are shown the sender has not sent any weather packets the latest 10 day(s).
| Time | Temp. | Humidity | Pressure | Rain* | Wind** | Luminosity | Snow |
|---|---|---|---|---|---|---|---|
| 1778113166 | 12.78° C | 1% | 1017 hPa | 0 mm | - | 141 W/m² | - |
| 1778112863 | 12.78° C | 1% | 1017 hPa | 0 mm | - | 159 W/m² | - |
| 1778112560 | 13.33° C | 1% | 1017.2 hPa | 0 mm | - | 56 W/m² | - |
| 1778112255 | 13.33° C | 1% | 1017.2 hPa | 0 mm | - | 198 W/m² | - |
| 1778111951 | 13.33° C | 1% | 1017.2 hPa | 0 mm | - | 172 W/m² | - |
| 1778111649 | 12.22° C | 1% | 1017.2 hPa | 0 mm | - | 146 W/m² | - |
| 1778111344 | 11.67° C | 1% | 1017.3 hPa | 0 mm | - | 93 W/m² | - |
| 1778111043 | 12.78° C | 1% | 1017.2 hPa | 0 mm | - | 128 W/m² | - |
| 1778110740 | 13.33° C | 1% | 1017.5 hPa | 0 mm | - | 207 W/m² | - |
| 1778110435 | 13.33° C | 1% | 1017.5 hPa | 0 mm | - | 276 W/m² | - |
| 1778110133 | 13.33° C | 1% | 1017.5 hPa | 0 mm | - | 268 W/m² | - |
| 1778109829 | 12.78° C | 1% | 1017.7 hPa | 0 mm | - | 321 W/m² | - |
| 1778109525 | 12.22° C | 1% | 1017.4 hPa | 0 mm | - | 351 W/m² | - |
| 1778109223 | 12.22° C | 1% | 1017.5 hPa | 0 mm | - | 329 W/m² | - |
| 1778108920 | 13.33° C | 1% | 1017.6 hPa | 0 mm | - | 308 W/m² | - |
| 1778108616 | 12.22° C | 1% | 1017.6 hPa | 0 mm | - | 399 W/m² | - |
| 1778108312 | 12.78° C | 1% | 1017.7 hPa | 0 mm | - | 133 W/m² | - |
| 1778108010 | 12.78° C | 1% | 1017.6 hPa | 0 mm | - | 423 W/m² | - |
| 1778107707 | 12.78° C | 1% | 1017.9 hPa | 0 mm | - | 317 W/m² | - |
| 1778107404 | 13.33° C | 1% | 1017.8 hPa | 0 mm | - | 300 W/m² | - |
| 1778107100 | 12.78° C | 1% | 1017.7 hPa | 0 mm | - | 379 W/m² | - |
| 1778106790 | 12.78° C | 1% | 1018 hPa | 0 mm | - | 374 W/m² | - |
| 1778106488 | 12.78° C | 1% | 1017.9 hPa | 0 mm | - | 177 W/m² | - |
| 1778106183 | 12.78° C | 1% | 1018 hPa | 0 mm | - | 444 W/m² | - |
| 1778105881 | 11.67° C | 1% | 1018.2 hPa | 0 mm | - | 356 W/m² | - |
* Rain latest hour (hover to see other rain measurements)
** Current wind speed in m/s (hover to see current wind gust speed)